Retour au catalogue

STARLINK-34911

ActifCommunicationsVLEO
NORAD 65325·PAYLOAD·🇺🇸 United States

Lancé Aug 27, 2025 depuis Cape Canaveral Space Force Station

Loading…

Prochains Passages (prochaines 24 heures)

TLE

FraisSource: CelesTrak SupGP

Époque: Sep 15, 2026, 03:50 UTC

1 65325C 25189C   26258.16020833  .00012313  00000+0  36421-3 0  2588
2 65325  53.1601  44.3193 0001029  88.9094  96.0865 15.34348910    16

Suivez STARLINK-34911 en temps réel avec AllMySat

Download on the App Store